User: anonymous   Login
Location: Unspecified
(0.0000°N, 0.0000°E)
Time: 12:49:10
(UTC+00:00)
Language:

NOSS 2-3 (C) - Orbit

View from above orbital plane
View from above orbital plane
View from above satellite
View from above satellite

Ground track
Ground track

The orbit data is extracted from the following two-line orbital elements,

1 23908U 96029C   17078.77450071 0.00000050  00000-0  31959-4 0    01
2 23908  63.3770 283.3081 0591000  11.5973 348.4027 13.40853274    01
Epoch (UTC): 19 March 2017 18:35:16
Eccentricity: 0.0591000
inclination: 63.3770°
perigee height: 664 km
apogee height: 1548 km
right ascension of ascending node: 283.3081°
argument of perigee: 11.5973°
revolutions per day: 13.40853274
mean anomaly at epoch: 348.4027°
orbit number at epoch: 0

The dashed part of the orbit path shows where the satellite is in the earth's shadow,  

DLR